Location: Newark
(27.9675°N, 86.8869°E)
Time: 12:01:14
(UTC+00:00)

Vanguard 3 - Pass Details

Date: 26 October 2019
Orbit: 508 x 3263 km, 33.3° (Epoch: 11 November)

Event Time Altitude Azimuth Distance (km) Brightness Sun altitude
Rises 13:56:12 0° 232° (SW) 5,212 11.9 -32.1°
Reaches altitude 10° 14:00:28 10° 228° (SW) 3,742 11.0 -33.1°
Enters shadow 14:07:00 40° 198° (SSW) 1,588 8.6 -34.5°
Maximum altitude 14:08:53 49° 157° (SSE) 1,262 - -34.9°
Drops below altitude 10° 14:13:52 10° 82° (E) 2,238 - -36.0°
Sets 14:15:51 0° 76° (ENE) 2,975 - -36.4°
